[[{"header":{"parameterUnit":"m.s-1","parameterCategory":2,"la1":30.2991,"la2":30.254,"lo1":-89.0895,"lo2":-89.0444,"dy":0.0017,"dx":0.0017,"nx":28,"ny":28,"refTime":"2025-04-11T21:00:00:Z","depth":"0","parameterNumber":2,"parameterNumberName":"U-component_of_CURRENTS"},"data":[0,0,0,0,0,0,0,0,0,0,0,0,0,0,0,0,0,0,0,0,0,0,0,0,0,0,0,0,0,0,0,0,0,0,0,0,0,0,0,0,0,0,0,0,0,0,0,0,0,0,0,0,0,0,0,0,0,0,0.3112,0.3112,0,0.3101,0.3101,0.31,0.3084,0.3084,0.3084,0.3084,0.3041,0.304,0.3038,0,0,0,0,0,0,0,0,0,0,0,0,0,0.3103,0.3103,0.3112,0.3112,0.3112,0.3101,0.3101,0.31,0.3084,0.3084,0.3084,0.3084,0.3041,0.304,0.3038,0,0,0,0,0,0,0,0,0,0,0,0,0,0.3097,0.3103,0.3112,0.3106,0.3106,0.3102,0.3101,0.31,0.3084,0.3084,0.3084,0.3084,0.3042,0.304,0.3038,0.3024,0,0,0.3032,0.3031,0,0,0,0,0,0,0,0,0.3097,0.3097,0.3107,0.3106,0.3106,0.3098,0.3082,0.3074,0.3084,0.3088,0.3084,0.3084,0.3059,0.3056,0.3048,0.3022,0.302,0.3032,0.3031,0.303,0.303,0,0,0,0,0,0,0,0.3098,0.3097,0.3103,0.3107,0.3107,0.3099,0.3098,0.308,0.3069,0.3087,0.3087,0.3093,0.3058,0.305,0.3047,0.3019,0.3032,0.303,0.3029,0.3029,0.3072,0.3074,0,0,0,0,0,0,0.3108,0.3098,0.3104,0.3104,0.3107,0.31,0.3098,0.3097,0.307,0.3068,0.3093,0.3092,0.3053,0.3049,0.3046,0.3107,0.303,0.3028,0.3027,0.307,0.3072,0.3075,0,0,0,0,0,0,0.3108,0.3108,0.3104,0.3104,0.3104,0.31,0.3098,0.3097,0.31,0.3075,0.3071,0.3099,0.3053,0.3048,0.3048,0.3102,0.3028,0.3026,0.3067,0.3071,0.3074,0.3178,0,0,0,0,0,0,0.3107,0.3108,0.3109,0.3105,0.3104,0.3128,0.3099,0.3097,0.3104,0.3104,0.3079,0.3075,0.3053,0.3051,0.3046,0.3098,0.3024,0.3064,0.3069,0.3073,0.3171,0.3184,0.3195,0,0,0,0,0,0.3107,0.3115,0.3108,0.311,0.3105,0.313,0.313,0.3124,0.3105,0.3123,0.3099,0.3076,0.3076,0.305,0.3044,0.3097,0.3062,0.3067,0.3072,0.3166,0.3182,0.3195,0,0,0,0,0,0,0.3115,0.3114,0.3107,0.3115,0.3133,0.313,0.3141,0.3132,0.3125,0.312,0.3086,0.3081,0.3111,0.3084,0.3057,0.3125,0.3073,0.3077,0.3147,0.3161,0.3173,0.3194,0.3023,0,0,0,0,0,0.3116,0.3118,0.3128,0.3136,0.3147,0.3142,0.3148,0.315,0.3145,0.3142,0.3121,0.3111,0.3126,0.3125,0.3125,0.3143,0.3177,0.318,0.3192,0.3202,0.3218,0.3327,0.3351,0.3092,0.3092,0.3092,0,0,0.3124,0.3121,0.3125,0.3138,0.3144,0.3174,0.3146,0.317,0.3198,0.3138,0.3156,0.3147,0.314,0.3175,0.3187,0.3159,0.3297,0.3209,0.3217,0.3228,0.3335,0.336,0.3383,0.3095,0.3095,0.3094,0,0,0.3147,0.314,0.3155,0.3173,0.3194,0.3201,0.3214,0.322,0.3229,0.3244,0.3226,0.3248,0.3237,0.3261,0.3268,0.3343,0.3359,0.3348,0.3421,0.3527,0.355,0.357,0.3662,0.3689,0.3351,0.3351,0.3351,0,0.3157,0.3175,0.3168,0.3193,0.3216,0.3219,0.3258,0.3274,0.3278,0.3299,0.3267,0.3307,0.3288,0.3367,0.3393,0.3373,0.3432,0.3365,0.3545,0.3566,0.3585,0.3674,0.3703,0.3357,0.3356,0.3356,0.3355,0,0.3197,0.3216,0.3233,0.3262,0.3287,0.3326,0.3353,0.3377,0.3378,0.3394,0.3459,0.3445,0.3473,0.3483,0.3453,0.3585,0.3584,0.3552,0.3511,0.3618,0.3704,0.3733,0.3365,0.3363,0.3361,0.336,0,0,0.3223,0.3253,0.3262,0.3291,0.333,0.3361,0.3415,0.3478,0.353,0.3542,0.3621,0.3642,0.3638,0.3648,0.3636,0.3717,0.3891,0.3694,0.3697,0.379,0.4139,0.4063,0.4086,0.3901,0.3906,0.3911,0.4151,0,0.3266,0.3314,0.3324,0.3398,0.3436,0.346,0.3516,0.3569,0.3605,0.368,0.3711,0.3771,0.3705,0.3731,0.3807,0.3869,0.3969,0.3829,0.4017,0.4023,0.3947,0.4118,0.3872,0.4059,0.4179,0.4184,0.4187,0,0.3315,0.3341,0.3402,0.3472,0.3494,0.3539,0.3636,0.3688,0.3788,0.3816,0.3882,0.3903,0.4013,0.3944,0.4132,0.4051,0.411,0.4156,0.4166,0.4078,0.4,0.3969,0.4106,0.3946,0.4231,0.4227,0.4224,0,0.3343,0.3408,0.3455,0.3478,0.3551,0.3594,0.3644,0.373,0.3797,0.3913,0.3976,0.4087,0.416,0.4261,0.4315,0.4255,0.4535,0.4459,0.4459,0.4453,0.427,0.4239,0.4273,0.4631,0.4631,0.463,0.4629,0,0.3394,0.3441,0.3473,0.3507,0.3588,0.3627,0.3734,0.3787,0.3902,0.4002,0.4049,0.4153,0.425,0.4385,0.4422,0.4538,0.4626,0.4523,0.4532,0.4298,0.4268,0.4135,0.4082,0.4639,0.4637,0.4635,0.4634,0,0.3431,0.3445,0.3505,0.3574,0.36,0.3658,0.3774,0.3858,0.3947,0.4086,0.4132,0.427,0.443,0.452,0.4705,0.4675,0.4646,0.4801,0.4509,0.4478,0.4273,0.4234,0.4212,0.4101,0.4851,0.4851,0.4851,0,0.345,0.3483,0.3542,0.3573,0.3608,0.3696,0.3765,0.3867,0.3952,0.4147,0.4222,0.4412,0.4499,0.473,0.4731,0.4822,0.4676,0.4654,0.4479,0.4278,0.4244,0.409,0.3986,0.4292,0.4287,0.4283,0.428,0,0.3507,0.3519,0.3562,0.3609,0.367,0.3747,0.3846,0.3912,0.4044,0.414,0.4278,0.4365,0.4543,0.4507,0.4614,0.4625,0.4386,0.4578,0.4453,0.3899,0.3655,0.3541,0.4117,0.4246,0.425,0.4252,0.4254,0.4255,0.3544,0.357,0.3608,0.3656,0.3715,0.3774,0.3783,0.388,0.3972,0.4029,0.4216,0.4219,0.4252,0.4337,0.4349,0.4144,0.4191,0.3967,0.3974,0.3865,0.3633,0.4136,0.4209,0.4212,0.4214,0.4217,0.4219,0,0.3583,0.3615,0.3659,0.369,0.3723,0.3756,0.3817,0.3772,0.3788,0.3864,0.3913,0.3842,0.3796,0.3802,0.3677,0.353,0.3373,0.3428,0.3131,0.3089,0.3606,0.3448,0.3254,0.3254,0.3254,0.3254,0.3254,0.3255,0.3607,0.3652,0.3659,0.3691,0.3696,0.364,0.3623,0.3531,0.3514,0.3377,0.3269,0.329,0.3347,0.3305,0.3116,0.3038,0.281,0.2676,0.275,0.3058,0.3106,0.3151,0.2987,0.27,0.2699,0.2027,0.2022,0.2018]},{"header":{"parameterUnit":"m.s-1","parameterCategory":2,"la1":30.2991,"la2":30.254,"lo1":-89.0895,"lo2":-89.0444,"dy":0.0017,"dx":0.0017,"nx":28,"ny":28,"refTime":"2025-04-11T21:00:00:Z","depth":"0","parameterNumber":3,"parameterNumberName":"V-component_of_CURRENTS"},"data":[0,0,0,0,0,0,0,0,0,0,0,0,0,0,0,0,0,0,0,0,0,0,0,0,0,0,0,0,0,0,0,0,0,0,0,0,0,0,0,0,0,0,0,0,0,0,0,0,0,0,0,0,0,0,0,0,0,0,-0.0066,-0.0066,0,-0.0109,-0.011,-0.011,-0.0152,-0.0152,-0.0153,-0.0153,-0.0199,-0.02,-0.02,0,0,0,0,0,0,0,0,0,0,0,0,0,-0.0048,-0.0048,-0.0066,-0.0066,-0.0067,-0.0109,-0.011,-0.011,-0.0152,-0.0152,-0.0153,-0.0154,-0.0199,-0.0199,-0.02,0,0,0,0,0,0,0,0,0,0,0,0,0,-0.007,-0.0048,-0.0066,-0.0093,-0.0096,-0.0109,-0.011,-0.011,-0.0151,-0.0152,-0.0153,-0.0154,-0.0198,-0.0199,-0.02,-0.019,0,0,-0.0204,-0.0204,0,0,0,0,0,0,0,0,-0.0068,-0.007,-0.0088,-0.0091,-0.0094,-0.0126,-0.012,-0.0137,-0.0151,-0.013,-0.0153,-0.0154,-0.0174,-0.0177,-0.0183,-0.0193,-0.0195,-0.0204,-0.0204,-0.0205,-0.0205,0,0,0,0,0,0,0,-0.0067,-0.0069,-0.0083,-0.0089,-0.0092,-0.0113,-0.0117,-0.0124,-0.0147,-0.0132,-0.0135,-0.014,-0.0176,-0.0182,-0.0185,-0.0195,-0.0204,-0.0205,-0.0205,-0.0206,-0.0217,-0.0217,0,0,0,0,0,0,-0.0059,-0.0067,-0.0081,-0.0084,-0.0083,-0.0112,-0.0117,-0.0115,-0.0147,-0.0153,-0.0139,-0.0142,-0.018,-0.0183,-0.0186,-0.0172,-0.0205,-0.0206,-0.0206,-0.0217,-0.0217,-0.0216,0,0,0,0,0,0,-0.0059,-0.006,-0.008,-0.0077,-0.0081,-0.0112,-0.0109,-0.0115,-0.0123,-0.0152,-0.0158,-0.0141,-0.0181,-0.0185,-0.0191,-0.0174,-0.0206,-0.0207,-0.0218,-0.0217,-0.0217,-0.0146,0,0,0,0,0,0,-0.0058,-0.0059,-0.0054,-0.0076,-0.0081,-0.0082,-0.0109,-0.0115,-0.0125,-0.0129,-0.0156,-0.0161,-0.0182,-0.0189,-0.0192,-0.0176,-0.0208,-0.0218,-0.0217,-0.0217,-0.0149,-0.0143,-0.0139,0,0,0,0,0,-0.0057,-0.0041,-0.0053,-0.0055,-0.0073,-0.0081,-0.0085,-0.011,-0.0124,-0.0121,-0.0142,-0.016,-0.0188,-0.019,-0.0193,-0.0177,-0.0218,-0.0218,-0.0217,-0.0151,-0.0145,-0.0139,0,0,0,0,0,0,-0.0028,-0.0044,-0.0059,-0.0048,-0.0063,-0.0088,-0.0086,-0.0104,-0.0118,-0.0122,-0.0152,-0.0158,-0.0161,-0.0179,-0.018,-0.0181,-0.0208,-0.0208,-0.0157,-0.0151,-0.0145,-0.0116,-0.0209,0,0,0,0,0,-0.0019,-0.0014,-0.0036,-0.0028,-0.0032,-0.0059,-0.0065,-0.0082,-0.0099,-0.0106,-0.0126,-0.0147,-0.0159,-0.0162,-0.018,-0.0172,-0.0164,-0.0167,-0.0162,-0.0158,-0.0137,-0.0108,-0.0097,-0.0214,-0.0214,-0.0214,0,0,-0.0007,-0.0015,-0.0013,-0.0022,-0.0036,-0.0027,-0.0064,-0.0069,-0.006,-0.0107,-0.01,-0.013,-0.0155,-0.0153,-0.0155,-0.0164,-0.0121,-0.0157,-0.0152,-0.0134,-0.0106,-0.0094,-0.0084,-0.0214,-0.0214,-0.0214,0,0,0.0026,0.0014,0.0031,0.0025,0.0011,-0.0003,-0.0002,-0.0024,-0.0033,-0.0035,-0.0067,-0.0077,-0.0102,-0.0107,-0.0115,-0.0089,-0.0099,-0.0108,-0.0049,-0.0021,-0.001,-0.0001,0.0027,0.0038,-0.0099,-0.0099,-0.0099,0,0.004,0.006,0.0034,0.0052,0.0058,0.0013,0.0038,0.0025,0.0003,0.0014,-0.0025,-0.004,-0.0073,-0.0045,-0.0051,-0.0072,-0.0063,-0.0068,-0.001,-0.0001,0.0008,0.0033,0.0045,-0.0096,-0.0096,-0.0097,-0.0097,0,0.0087,0.0103,0.0114,0.0123,0.0126,0.0137,0.0119,0.0117,0.0094,0.0089,0.0097,0.0053,0.0052,0.0028,-0.0009,0.0034,0.002,-0.0009,-0.0019,0.0024,0.0048,0.0059,-0.0091,-0.0092,-0.0093,-0.0094,0,0,0.0118,0.0143,0.0148,0.017,0.0166,0.0177,0.0194,0.0209,0.0241,0.0203,0.0251,0.0202,0.018,0.0169,0.0125,0.0134,0.0184,0.0086,0.0086,0.0128,0.025,0.0209,0.0217,0.0164,0.0166,0.0168,0.0244,0,0.0162,0.0218,0.0218,0.0271,0.0298,0.0278,0.0305,0.0313,0.031,0.0342,0.0307,0.0326,0.0235,0.0237,0.0231,0.0201,0.0215,0.0166,0.019,0.0192,0.0162,0.023,0.0204,0.0267,0.0255,0.0257,0.0258,0,0.0205,0.0241,0.0304,0.0356,0.0368,0.0393,0.044,0.046,0.0489,0.0491,0.0501,0.0476,0.0486,0.0395,0.039,0.0361,0.0314,0.0281,0.0283,0.0232,0.0172,0.022,0.0288,0.0137,0.0275,0.0273,0.0272,0,0.0241,0.0301,0.0359,0.0374,0.0422,0.0451,0.0475,0.0509,0.0547,0.0597,0.0639,0.0636,0.0656,0.0598,0.0509,0.046,0.0505,0.0435,0.0361,0.0358,0.0337,0.0327,0.0276,0.0444,0.0444,0.0444,0.0444,0,0.0285,0.0331,0.0382,0.0413,0.0489,0.0505,0.0583,0.0607,0.0664,0.0749,0.0723,0.0795,0.0707,0.0707,0.0594,0.0528,0.058,0.04,0.0386,0.0357,0.035,0.0214,0.0123,0.0447,0.0446,0.0446,0.0445,0,0.0305,0.034,0.0411,0.0479,0.0505,0.0558,0.0638,0.0694,0.075,0.0862,0.0889,0.0942,0.0961,0.0861,0.0804,0.0662,0.0499,0.0542,0.0512,0.0491,0.0244,0.0158,0.0107,0.0051,0.0481,0.048,0.048,0,0.0321,0.0355,0.0449,0.0498,0.0529,0.0606,0.0657,0.0722,0.0794,0.096,0.1026,0.1099,0.1175,0.1077,0.0865,0.0707,0.0536,0.0532,0.042,0.0255,0.0149,0.0078,0.0029,0.0425,0.0424,0.0424,0.0423,0,0.0338,0.0368,0.0421,0.0521,0.059,0.0677,0.0765,0.0845,0.0955,0.1092,0.1285,0.1377,0.1301,0.1165,0.092,0.0766,0.0408,0.0511,0.0362,0.0127,0.0031,-0.0038,0.0346,0.0418,0.0418,0.0419,0.0419,0.0419,0.0338,0.0377,0.0444,0.0541,0.0625,0.0745,0.085,0.098,0.1155,0.1401,0.1465,0.1659,0.1399,0.1088,0.0849,0.0375,0.039,0.0202,0.0125,0.0079,-0.002,0.0346,0.0375,0.0375,0.0376,0.0376,0.0376,0,0.0334,0.0378,0.0461,0.0584,0.0683,0.0736,0.0917,0.1058,0.1313,0.1545,0.1745,0.1738,0.1393,0.0999,0.0369,0.0041,-0.0081,-0.0138,-0.0247,-0.0268,0.0085,0.0033,-0.0036,-0.0036,-0.0036,-0.0035,-0.0035,-0.0035,0.0333,0.0389,0.0439,0.0598,0.0699,0.0875,0.1005,0.124,0.1451,0.1757,0.1903,0.1989,0.1677,0.0579,-0.0158,-0.032,-0.0541,-0.0596,-0.0673,-0.0463,-0.0438,-0.0414,-0.0484,-0.066,-0.0661,-0.0999,-0.1002,-0.1005]}],[{"header":{"parameterUnit":"m.s-1","parameterCategory":2,"la1":30.2991,"la2":30.254,"lo1":-89.0895,"lo2":-89.0444,"dy":0.0017,"dx":0.0017,"nx":28,"ny":28,"refTime":"2025-04-11T21:00:00:Z","depth":"2","parameterNumber":2,"parameterNumberName":"U-component_of_CURRENTS"},"data":[0,0,0,0,0,0,0,0,0,0,0,0,0,0,0,0,0,0,0,0,0,0,0,0,0,0,0,0,0,0,0,0,0,0,0,0,0,0,0,0,0,0,0,0,0,0,0,0,0,0,0,0,0,0,0,0,0,0,0.2336,0.2336,0,0.2328,0.2328,0.2327,0.2328,0.2328,0.2328,0.2329,0.2342,0.2341,0.2341,0,0,0,0,0,0,0,0,0,0,0,0,0,0.2316,0.2316,0.2336,0.2336,0.2336,0.2328,0.2327,0.2327,0.2327,0.2328,0.2329,0.2329,0.2342,0.2341,0.2341,0,0,0,0,0,0,0,0,0,0,0,0,0,0.2314,0.2316,0.2336,0.2338,0.2339,0.2328,0.2327,0.2327,0.2327,0.2328,0.2329,0.2329,0.2342,0.2342,0.2341,0.2327,0,0,0.2341,0.2341,0,0,0,0,0,0,0,0,0.2314,0.2315,0.2338,0.2338,0.2338,0.2333,0.2325,0.2329,0.2327,0.2328,0.2329,0.233,0.2342,0.2342,0.2334,0.2327,0.2328,0.2341,0.2341,0.2341,0.2341,0,0,0,0,0,0,0,0.2315,0.2315,0.2329,0.2338,0.2338,0.2328,0.2328,0.2325,0.2329,0.2328,0.2329,0.2333,0.2342,0.2334,0.2334,0.2328,0.2341,0.2341,0.2341,0.2341,0.2404,0.2406,0,0,0,0,0,0,0.2324,0.2315,0.2329,0.2329,0.2332,0.2328,0.2328,0.2331,0.2328,0.233,0.2333,0.2334,0.2334,0.2334,0.2335,0.2395,0.2341,0.2341,0.2341,0.2402,0.2404,0.2406,0,0,0,0,0,0,0.2324,0.2325,0.2329,0.2325,0.2325,0.2329,0.2331,0.233,0.2341,0.2333,0.2334,0.2346,0.2334,0.2335,0.2356,0.2393,0.2341,0.2341,0.24,0.2403,0.2405,0.2467,0,0,0,0,0,0,0.2323,0.2325,0.2332,0.2326,0.2326,0.2337,0.233,0.233,0.2343,0.2345,0.2344,0.2345,0.2335,0.2357,0.2356,0.2392,0.234,0.2398,0.2401,0.2405,0.2463,0.2471,0.2479,0,0,0,0,0,0.2322,0.2329,0.2332,0.2334,0.2335,0.2338,0.2337,0.2339,0.2344,0.235,0.2358,0.2346,0.2378,0.2357,0.2357,0.2393,0.2396,0.24,0.2404,0.2459,0.247,0.2479,0,0,0,0,0,0,0.2324,0.2329,0.2333,0.2341,0.2348,0.234,0.235,0.235,0.2358,0.237,0.2358,0.2359,0.2399,0.2385,0.2363,0.2424,0.2389,0.2393,0.2431,0.2441,0.2449,0.2482,0.234,0,0,0,0,0,0.2329,0.2337,0.234,0.235,0.2357,0.2357,0.2361,0.2365,0.2371,0.2376,0.2378,0.239,0.2411,0.2417,0.2429,0.2448,0.248,0.2476,0.2484,0.2491,0.2519,0.2594,0.2612,0.2419,0.2419,0.2419,0,0,0.2336,0.2339,0.2346,0.2352,0.2359,0.2379,0.2361,0.2379,0.2402,0.2377,0.2412,0.242,0.2425,0.2459,0.2475,0.2452,0.2563,0.2496,0.2502,0.2527,0.26,0.2619,0.2636,0.2422,0.2422,0.2421,0,0,0.2351,0.2358,0.237,0.2383,0.2401,0.2404,0.2416,0.2423,0.2434,0.2462,0.2464,0.2495,0.2508,0.2524,0.2533,0.2591,0.261,0.2598,0.2657,0.2728,0.2745,0.276,0.2829,0.285,0.2594,0.2594,0.2594,0,0.2361,0.2379,0.2375,0.2397,0.2414,0.2422,0.2447,0.2461,0.2476,0.25,0.2488,0.2564,0.2545,0.2617,0.2628,0.2611,0.266,0.2615,0.2741,0.2756,0.2771,0.2838,0.286,0.2597,0.2597,0.2597,0.2596,0,0.2386,0.2411,0.2425,0.2457,0.2468,0.2498,0.2515,0.2542,0.2559,0.2581,0.266,0.266,0.271,0.2704,0.2676,0.2776,0.278,0.2747,0.2716,0.2794,0.2859,0.2881,0.2602,0.2601,0.26,0.2599,0,0,0.24,0.2434,0.2449,0.2465,0.2507,0.2514,0.2567,0.2613,0.2677,0.2706,0.2788,0.2814,0.284,0.2853,0.2844,0.2889,0.3001,0.2862,0.2864,0.2932,0.3182,0.3029,0.3038,0.2999,0.3003,0.3007,0.3188,0,0.2432,0.2457,0.2485,0.2536,0.2544,0.2585,0.2639,0.2685,0.2738,0.2819,0.2857,0.2929,0.2892,0.2926,0.2976,0.3006,0.3064,0.2957,0.3096,0.3101,0.2956,0.3059,0.2805,0.2932,0.321,0.3213,0.3216,0,0.2459,0.2466,0.2505,0.2558,0.2576,0.2623,0.2715,0.2772,0.2889,0.2937,0.3037,0.3069,0.3162,0.3098,0.3247,0.319,0.3199,0.3211,0.3218,0.3072,0.2988,0.2899,0.2962,0.3253,0.325,0.3247,0.3245,0,0.2442,0.249,0.2514,0.2536,0.2602,0.2648,0.2701,0.2811,0.2879,0.3026,0.309,0.3229,0.3294,0.3365,0.3375,0.3334,0.3522,0.3461,0.3346,0.3336,0.3145,0.311,0.3565,0.3565,0.3564,0.3564,0.3563,0,0.246,0.2487,0.251,0.2541,0.2604,0.2642,0.2772,0.2846,0.2973,0.3062,0.316,0.3257,0.3362,0.3453,0.3461,0.3487,0.3604,0.3396,0.3383,0.3156,0.3121,0.3407,0.3386,0.3571,0.3569,0.3568,0.3567,0,0.2438,0.2472,0.2509,0.2573,0.2608,0.265,0.2793,0.2862,0.2997,0.3114,0.3152,0.3316,0.3424,0.3498,0.3615,0.3575,0.3613,0.3575,0.3297,0.3244,0.3367,0.3347,0.3506,0.3503,0.35,0.3497,0.3495,0,0.2439,0.2435,0.252,0.2555,0.2598,0.2681,0.2739,0.287,0.2933,0.3134,0.316,0.3309,0.3369,0.3514,0.3479,0.3498,0.3553,0.3257,0.3101,0.3395,0.3367,0.3352,0.3337,0.2896,0.2889,0.2884,0.2879,0,0.2403,0.2433,0.2476,0.2531,0.2592,0.2646,0.2726,0.2781,0.2917,0.2997,0.3111,0.3179,0.3287,0.32,0.3202,0.3172,0.3234,0.3136,0.3572,0.2912,0.2823,0.2793,0.2799,0.2829,0.2834,0.2838,0.284,0.2842,0.2391,0.2401,0.2447,0.2503,0.2578,0.2586,0.2599,0.2663,0.2735,0.2792,0.2938,0.2941,0.2988,0.2849,0.2775,0.2718,0.2916,0.2797,0.2814,0.2838,0.2696,0.2602,0.2543,0.2546,0.2549,0.2551,0.2553,0,0.2369,0.2351,0.2391,0.2452,0.2487,0.2547,0.2567,0.252,0.2552,0.2591,0.264,0.2412,0.2353,0.2392,0.2223,0.2212,0.2198,0.2125,0.2093,0.2145,0.2191,0.2015,0.1683,0.168,0.1677,0.1675,0,0,0.2354,0.2349,0.236,0.2351,0.241,0.2352,0.2354,0.2291,0.2273,0.2181,0.2141,0.2261,0.2339,0.1981,0.1932,0.1783,0.1951,0.1715,0.242,0.2437,0.248,0.2592,0.238,0,0,0,0,0]},{"header":{"parameterUnit":"m.s-1","parameterCategory":2,"la1":30.2991,"la2":30.254,"lo1":-89.0895,"lo2":-89.0444,"dy":0.0017,"dx":0.0017,"nx":28,"ny":28,"refTime":"2025-04-11T21:00:00:Z","depth":"2","parameterNumber":3,"parameterNumberName":"V-component_of_CURRENTS"},"data":[0,0,0,0,0,0,0,0,0,0,0,0,0,0,0,0,0,0,0,0,0,0,0,0,0,0,0,0,0,0,0,0,0,0,0,0,0,0,0,0,0,0,0,0,0,0,0,0,0,0,0,0,0,0,0,0,0,0,0.0148,0.0148,0,0.011,0.011,0.011,0.0085,0.0084,0.0084,0.0084,0.0044,0.0043,0.0043,0,0,0,0,0,0,0,0,0,0,0,0,0,0.0162,0.0162,0.0149,0.0148,0.0148,0.011,0.011,0.0109,0.0085,0.0084,0.0084,0.0084,0.0045,0.0044,0.0042,0,0,0,0,0,0,0,0,0,0,0,0,0,0.0143,0.0162,0.0149,0.0131,0.0129,0.0111,0.011,0.0109,0.0085,0.0084,0.0084,0.0084,0.0045,0.0044,0.0042,0.0039,0,0,0.0038,0.0038,0,0,0,0,0,0,0,0,0.0145,0.0143,0.0134,0.0132,0.013,0.0102,0.01,0.0086,0.0085,0.0101,0.0084,0.0084,0.0064,0.0061,0.0054,0.0037,0.0035,0.0038,0.0037,0.0037,0.0036,0,0,0,0,0,0,0,0.0146,0.0144,0.0133,0.0133,0.0131,0.0112,0.0109,0.0097,0.0084,0.01,0.0098,0.0094,0.0062,0.0055,0.0053,0.0034,0.0038,0.0037,0.0036,0.0035,0.0013,0.0013,0,0,0,0,0,0,0.0153,0.0146,0.0135,0.0132,0.0137,0.0112,0.0109,0.0111,0.0084,0.008,0.0094,0.0093,0.0058,0.0055,0.0051,0.0057,0.0037,0.0035,0.0035,0.0012,0.0013,0.0013,0,0,0,0,0,0,0.0154,0.0153,0.0136,0.0138,0.0134,0.0112,0.0115,0.011,0.0104,0.008,0.0076,0.0092,0.0058,0.0053,0.0044,0.0055,0.0035,0.0033,0.0012,0.0012,0.0013,0.0061,0,0,0,0,0,0,0.0154,0.0153,0.0157,0.0138,0.0134,0.0133,0.0115,0.011,0.0102,0.01,0.0077,0.0073,0.0057,0.0046,0.0043,0.0053,0.0032,0.0012,0.0012,0.0013,0.0059,0.0063,0.0066,0,0,0,0,0,0.0155,0.0165,0.0158,0.0156,0.0141,0.0134,0.013,0.0113,0.0102,0.0105,0.0087,0.0073,0.0046,0.0046,0.0041,0.0051,0.0012,0.0012,0.0013,0.0057,0.0062,0.0066,0,0,0,0,0,0,0.0172,0.0163,0.0154,0.0161,0.015,0.013,0.0129,0.0116,0.0103,0.0101,0.0076,0.0071,0.0065,0.0051,0.0051,0.0044,0.0027,0.0026,0.0062,0.0066,0.007,0.009,0.0031,0,0,0,0,0,0.0178,0.0183,0.0169,0.0173,0.017,0.0149,0.0143,0.0133,0.0118,0.0112,0.0094,0.0076,0.0064,0.006,0.0044,0.0044,0.0031,0.0046,0.005,0.0053,0.0066,0.0056,0.0061,0.0014,0.0014,0.0014,0,0,0.0184,0.018,0.0182,0.0177,0.0166,0.0173,0.0145,0.0141,0.0148,0.011,0.011,0.0086,0.0065,0.0062,0.0059,0.0053,0.0057,0.0053,0.0056,0.0068,0.0057,0.0062,0.0066,0.0015,0.0015,0.0015,0,0,0.0205,0.0198,0.0211,0.0208,0.0199,0.0189,0.019,0.0172,0.0165,0.0159,0.0134,0.0118,0.0097,0.0088,0.008,0.0094,0.0072,0.0085,0.0126,0.0116,0.012,0.0124,0.0107,0.0108,0.0092,0.0092,0.0092,0,0.0213,0.0231,0.0212,0.0226,0.0232,0.0201,0.0221,0.0209,0.0189,0.0192,0.0166,0.014,0.0112,0.0123,0.0121,0.0103,0.0092,0.0113,0.0122,0.0125,0.0128,0.011,0.0111,0.0094,0.0094,0.0094,0.0094,0,0.0246,0.0261,0.0269,0.028,0.0281,0.0293,0.0278,0.0273,0.0254,0.0246,0.0241,0.02,0.019,0.0173,0.0148,0.0159,0.0142,0.0125,0.0115,0.0136,0.0115,0.0115,0.0098,0.0097,0.0096,0.0096,0,0,0.0267,0.0289,0.0294,0.0318,0.0315,0.0327,0.0331,0.034,0.0362,0.0322,0.0347,0.03,0.0276,0.0265,0.0231,0.0217,0.021,0.0183,0.0181,0.0173,0.0186,0.0137,0.0132,0.0196,0.0197,0.0197,0.0162,0,0.0302,0.035,0.0347,0.0396,0.0423,0.0404,0.042,0.042,0.0413,0.0427,0.0379,0.0385,0.0314,0.0313,0.0285,0.0241,0.0215,0.0221,0.0162,0.016,0.012,0.0132,0.015,0.0117,0.0162,0.0162,0.0162,0,0.0338,0.0371,0.0424,0.0473,0.0483,0.0503,0.0538,0.0551,0.0552,0.0549,0.0535,0.0498,0.0472,0.0404,0.0332,0.0342,0.0265,0.0217,0.0214,0.0155,0.0112,0.0103,0.0115,0.0162,0.0162,0.0162,0.0162,0,0.0375,0.0428,0.0479,0.0493,0.0533,0.0554,0.0575,0.0589,0.0631,0.0634,0.0664,0.0611,0.0603,0.0507,0.0385,0.0364,0.0304,0.0264,0.0143,0.0138,0.0136,0.013,0.0201,0.0202,0.0202,0.0202,0.0202,0,0.0416,0.0461,0.0503,0.0533,0.0606,0.061,0.0689,0.0696,0.0741,0.0813,0.0737,0.078,0.0628,0.0567,0.0434,0.0298,0.0338,0.0156,0.013,0.015,0.0146,0.0172,0.017,0.02,0.0201,0.0201,0.0201,0,0.0445,0.047,0.054,0.0599,0.0625,0.0678,0.0774,0.0844,0.086,0.095,0.0957,0.0923,0.0828,0.0661,0.0514,0.0375,0.0242,0.0175,0.0201,0.0177,0.0067,0.0067,0.0042,0.004,0.0038,0.0037,0.0035,0,0.0465,0.0503,0.0589,0.0652,0.0683,0.0769,0.0844,0.0896,0.0993,0.1049,0.1118,0.1036,0.1002,0.076,0.0497,0.025,0.022,0.0103,0.0051,0.0075,0.0052,0.0055,0.0057,0.0066,0.0065,0.0065,0.0064,0,0.0515,0.054,0.0592,0.0713,0.0806,0.0934,0.1051,0.1143,0.1215,0.1277,0.1357,0.1321,0.1058,0.0811,0.0447,0.0281,0.0139,0.0078,0.0124,0.0095,0.0093,0.0072,0.0074,0.0058,0.0059,0.0059,0.0059,0.006,0.0554,0.0595,0.0669,0.0783,0.0905,0.1087,0.1198,0.1337,0.1474,0.1554,0.1521,0.1448,0.1151,0.0668,0.0387,0.0076,0.0078,-0.0027,-0.0022,-0.0017,-0.0017,-0.0023,-0.0079,-0.0079,-0.008,-0.008,-0.008,0,0.0608,0.0654,0.0755,0.0905,0.106,0.1113,0.1331,0.1441,0.1603,0.1632,0.165,0.1336,0.1053,0.0711,0.0242,-0.003,-0.0036,-0.0112,-0.0053,-0.0046,-0.004,-0.0039,-0.0108,-0.0108,-0.0109,-0.011,0,0,0.0646,0.0732,0.0772,0.1011,0.1127,0.1328,0.1454,0.1592,0.1663,0.1674,0.1603,0.1502,0.1111,0.077,0.0403,0.0148,0.0115,0.0096,0.0145,0.0263,0.0273,0.003,0.0042,0,0,0,0,0]}],[{"header":{"parameterUnit":"m.s-1","parameterCategory":2,"la1":30.2991,"la2":30.254,"lo1":-89.0895,"lo2":-89.0444,"dy":0.0017,"dx":0.0017,"nx":28,"ny":28,"refTime":"2025-04-11T21:00:00:Z","depth":"4","parameterNumber":2,"parameterNumberName":"U-component_of_CURRENTS"},"data":[0,0,0,0,0,0,0,0,0,0,0,0,0,0,0,0,0,0,0,0,0,0,0,0,0,0,0,0,0,0,0,0,0,0,0,0,0,0,0,0,0,0,0,0,0,0,0,0,0,0,0,0,0,0,0,0,0,0,0.1314,0.1314,0,0.1372,0.1372,0.1373,0.1424,0.1424,0.1425,0.1426,0.1483,0.1484,0.1485,0,0,0,0,0,0,0,0,0,0,0,0,0,0.1247,0.1248,0.1314,0.1314,0.1315,0.1371,0.1372,0.1373,0.1424,0.1424,0.1425,0.1426,0.1483,0.1484,0.1485,0,0,0,0,0,0,0,0,0,0,0,0,0,0.1287,0.1248,0.1313,0.1348,0.1352,0.1371,0.1372,0.1373,0.1423,0.1424,0.1425,0.1426,0.1483,0.1484,0.1485,0.1474,0,0,0.1489,0.149,0,0,0,0,0,0,0,0,0.1284,0.1289,0.1342,0.1346,0.135,0.1392,0.137,0.1407,0.1423,0.1395,0.1426,0.1427,0.1452,0.1456,0.1464,0.1477,0.1479,0.149,0.149,0.1491,0.1491,0,0,0,0,0,0,0,0.1282,0.1287,0.1336,0.1343,0.1348,0.136,0.1367,0.1377,0.1417,0.1398,0.1402,0.1409,0.1455,0.1463,0.1466,0.148,0.149,0.1491,0.1492,0.1492,0.1569,0.1571,0,0,0,0,0,0,0.1275,0.1284,0.1334,0.1338,0.132,0.1361,0.1368,0.1377,0.1417,0.1424,0.1408,0.1411,0.146,0.1464,0.1468,0.1531,0.1491,0.1492,0.1493,0.1568,0.157,0.1571,0,0,0,0,0,0,0.1273,0.1279,0.1332,0.1313,0.1321,0.1361,0.137,0.1378,0.1416,0.1425,0.1433,0.1443,0.1461,0.1466,0.1501,0.1531,0.1493,0.1494,0.1567,0.1569,0.157,0.1609,0,0,0,0,0,0,0.1271,0.1278,0.1294,0.1312,0.1321,0.136,0.137,0.1378,0.1417,0.1423,0.1456,0.1461,0.1462,0.1499,0.1503,0.1532,0.1495,0.1565,0.1568,0.157,0.1606,0.1612,0.1617,0,0,0,0,0,0.1269,0.1281,0.1295,0.1302,0.1339,0.136,0.1367,0.1398,0.1418,0.1436,0.1462,0.1462,0.1517,0.1501,0.1505,0.1535,0.1564,0.1567,0.157,0.1604,0.1611,0.1617,0,0,0,0,0,0,0.1261,0.1288,0.1303,0.1325,0.135,0.137,0.1394,0.1413,0.1448,0.1464,0.1473,0.1479,0.1524,0.1522,0.1505,0.1565,0.1542,0.1546,0.1567,0.1574,0.1579,0.159,0.1496,0,0,0,0,0,0.1265,0.1288,0.131,0.1332,0.1346,0.1376,0.1395,0.1417,0.1443,0.1461,0.1484,0.151,0.1532,0.1548,0.1566,0.1593,0.1611,0.1617,0.1623,0.1627,0.164,0.1688,0.1699,0.158,0.158,0.158,0,0,0.1266,0.1289,0.13,0.1333,0.1358,0.138,0.1392,0.1428,0.1455,0.146,0.1512,0.1531,0.1545,0.158,0.16,0.1587,0.1671,0.1631,0.1634,0.1645,0.1692,0.1704,0.1714,0.1582,0.1582,0.1581,0,0,0.1273,0.1303,0.1321,0.1345,0.1388,0.1404,0.142,0.1457,0.1485,0.1527,0.1542,0.1581,0.1614,0.163,0.1641,0.1686,0.1699,0.1696,0.1731,0.1778,0.1789,0.1798,0.1836,0.1848,0.1696,0.1696,0.1696,0,0.1281,0.1301,0.133,0.1356,0.138,0.1417,0.144,0.147,0.1516,0.1545,0.1553,0.1625,0.1638,0.168,0.1701,0.1699,0.1728,0.1703,0.1786,0.1795,0.1804,0.1841,0.1854,0.1699,0.1698,0.1698,0.1698,0,0.1289,0.132,0.1336,0.1381,0.141,0.1438,0.1477,0.1516,0.1558,0.159,0.1657,0.1677,0.1725,0.1732,0.1734,0.1802,0.1803,0.1788,0.1769,0.1819,0.1854,0.1867,0.1702,0.1701,0.17,0.17,0,0,0.1278,0.1329,0.1342,0.1364,0.1427,0.1447,0.1501,0.1553,0.1601,0.1652,0.1715,0.1758,0.1792,0.1807,0.1816,0.1853,0.1939,0.1856,0.1857,0.1893,0.2051,0.1881,0.1879,0.1945,0.1948,0.195,0.2051,0,0.1283,0.1316,0.1352,0.1398,0.1415,0.1473,0.1516,0.1576,0.1638,0.1709,0.1753,0.1822,0.1813,0.1854,0.189,0.1931,0.1976,0.1913,0.1999,0.2001,0.1843,0.1889,0.1957,0.2061,0.2064,0.2066,0.2068,0,0.1275,0.1304,0.1332,0.1399,0.1416,0.1457,0.1544,0.1591,0.1694,0.1755,0.1836,0.1882,0.196,0.1944,0.2042,0.2008,0.2045,0.2064,0.2068,0.1905,0.1854,0.2001,0.2091,0.2089,0.2088,0.2086,0.2085,0,0.1225,0.1293,0.1311,0.1334,0.141,0.1453,0.151,0.161,0.1667,0.1806,0.1874,0.1963,0.2035,0.2084,0.2127,0.2111,0.2221,0.2198,0.2078,0.2067,0.2174,0.2162,0.2279,0.2278,0.2278,0.2278,0.2278,0,0.1196,0.1228,0.1295,0.1307,0.135,0.143,0.1502,0.1582,0.171,0.178,0.1903,0.1961,0.2081,0.2146,0.2165,0.215,0.2258,0.2094,0.2082,0.2187,0.2176,0.2183,0.217,0.2282,0.2281,0.228,0.2279,0,0.1137,0.1178,0.1205,0.1288,0.1319,0.1355,0.1488,0.1535,0.1688,0.1789,0.1846,0.2006,0.2088,0.2163,0.2257,0.2191,0.2196,0.2169,0.2285,0.2276,0.2007,0.1996,0.2049,0.2044,0.204,0.2036,0.2033,0,0.1099,0.1096,0.1167,0.1175,0.122,0.1295,0.1332,0.1498,0.1562,0.1776,0.1806,0.1963,0.2042,0.2049,0.2126,0.2155,0.2128,0.2126,0.2054,0.2002,0.1985,0.1981,0.1976,0.2026,0.2025,0.2024,0.2023,0,0.1011,0.104,0.1073,0.1092,0.1129,0.1161,0.1253,0.1298,0.1483,0.1639,0.1747,0.1812,0.19,0.1958,0.2004,0.2008,0.2115,0.208,0.2088,0.2021,0.1974,0.1961,0.1961,0.2008,0.201,0.2011,0.2012,0,0.0946,0.0948,0.0977,0.1002,0.1029,0.1021,0.1086,0.1178,0.1275,0.1538,0.1556,0.1723,0.1879,0.188,0.1901,0.1908,0.1879,0.1817,0.1839,0.1856,0.1738,0.1647,0.1577,0,0,0,0,0,0.0849,0.0851,0.0872,0.0884,0.0909,0.0927,0.1021,0.1099,0.1288,0.1325,0.1457,0.1533,0.1613,0.1685,0.1654,0.1777,0.1858,0.1728,0.1789,0.1923,0.1941,0.1815,0,0,0,0,0,0,0.0787,0.0796,0.0842,0.0783,0.0772,0.0784,0.0838,0.0959,0.1004,0.1211,0.1265,0.1424,0.1517,0.1623,0.1623,0.1643,0.1644,0.1834,0.1829,0.1913,0.1929,0.1943,0.182,0,0,0,0,0]},{"header":{"parameterUnit":"m.s-1","parameterCategory":2,"la1":30.2991,"la2":30.254,"lo1":-89.0895,"lo2":-89.0444,"dy":0.0017,"dx":0.0017,"nx":28,"ny":28,"refTime":"2025-04-11T21:00:00:Z","depth":"4","parameterNumber":3,"parameterNumberName":"V-component_of_CURRENTS"},"data":[0,0,0,0,0,0,0,0,0,0,0,0,0,0,0,0,0,0,0,0,0,0,0,0,0,0,0,0,0,0,0,0,0,0,0,0,0,0,0,0,0,0,0,0,0,0,0,0,0,0,0,0,0,0,0,0,0,0,0.016,0.016,0,0.014,0.014,0.014,0.0133,0.0133,0.0133,0.0133,0.0117,0.0117,0.0116,0,0,0,0,0,0,0,0,0,0,0,0,0,0.0162,0.0162,0.016,0.016,0.016,0.014,0.014,0.014,0.0133,0.0133,0.0133,0.0134,0.0118,0.0117,0.0116,0,0,0,0,0,0,0,0,0,0,0,0,0,0.0153,0.0162,0.016,0.0154,0.0154,0.014,0.014,0.014,0.0133,0.0133,0.0133,0.0134,0.0118,0.0117,0.0116,0.0108,0,0,0.0114,0.0113,0,0,0,0,0,0,0,0,0.0154,0.0153,0.0155,0.0155,0.0154,0.0139,0.0135,0.0129,0.0133,0.0141,0.0133,0.0134,0.0125,0.0124,0.0119,0.0107,0.0107,0.0114,0.0113,0.0113,0.0113,0,0,0,0,0,0,0,0.0155,0.0154,0.0152,0.0155,0.0154,0.0142,0.0141,0.0133,0.0132,0.014,0.014,0.0138,0.0125,0.012,0.0119,0.0106,0.0114,0.0113,0.0113,0.0112,0.0098,0.0098,0,0,0,0,0,0,0.0159,0.0155,0.0153,0.0152,0.0154,0.0142,0.0141,0.0144,0.0132,0.0131,0.0137,0.0137,0.0121,0.012,0.0118,0.0122,0.0113,0.0112,0.0112,0.0098,0.0098,0.0098,0,0,0,0,0,0,0.0159,0.0159,0.0154,0.0152,0.0151,0.0142,0.0145,0.0143,0.0143,0.013,0.0129,0.0139,0.0121,0.0119,0.0116,0.012,0.0112,0.0111,0.0097,0.0098,0.0098,0.012,0,0,0,0,0,0,0.0159,0.0159,0.0164,0.0153,0.0151,0.0151,0.0145,0.0143,0.0141,0.0141,0.0131,0.0129,0.0121,0.0117,0.0115,0.0119,0.011,0.0097,0.0098,0.0098,0.0119,0.012,0.0122,0,0,0,0,0,0.0159,0.0166,0.0164,0.0164,0.0157,0.0151,0.0149,0.0143,0.0141,0.0142,0.0136,0.013,0.0117,0.0117,0.0114,0.0118,0.0097,0.0097,0.0098,0.0118,0.012,0.0122,0,0,0,0,0,0,0.0167,0.0165,0.0163,0.0168,0.0162,0.015,0.0151,0.0146,0.0141,0.0143,0.0131,0.0129,0.0127,0.0119,0.0119,0.0114,0.0106,0.0106,0.0122,0.0124,0.0126,0.0132,0.011,0,0,0,0,0,0.0171,0.0177,0.017,0.0173,0.0172,0.0162,0.0159,0.0156,0.0149,0.0147,0.0139,0.0131,0.0124,0.0122,0.0114,0.0112,0.009,0.0113,0.0114,0.0116,0.0119,0.0085,0.0083,0.0098,0.0098,0.0098,0,0,0.0175,0.0174,0.0177,0.0175,0.0171,0.0175,0.0161,0.016,0.0164,0.0146,0.0149,0.0136,0.0125,0.0122,0.0121,0.0118,0.0099,0.0116,0.0117,0.0119,0.0085,0.0083,0.0082,0.0099,0.0099,0.0099,0,0,0.0185,0.0185,0.0194,0.0193,0.019,0.0185,0.0187,0.0178,0.0175,0.0173,0.0161,0.015,0.0143,0.0132,0.0127,0.0132,0.0108,0.0132,0.0145,0.0113,0.0111,0.0109,0.0075,0.007,0.0133,0.0133,0.0133,0,0.0189,0.0204,0.0195,0.0203,0.0208,0.0193,0.0205,0.0198,0.0188,0.0187,0.0179,0.0156,0.0147,0.0139,0.0143,0.0135,0.0112,0.014,0.0114,0.0112,0.011,0.0075,0.0069,0.0134,0.0134,0.0134,0.0134,0,0.0207,0.0221,0.0226,0.0236,0.0236,0.0244,0.0236,0.0233,0.0226,0.0219,0.0206,0.0181,0.0171,0.0162,0.0156,0.014,0.0126,0.0119,0.0109,0.011,0.0073,0.0067,0.0136,0.0135,0.0135,0.0135,0,0,0.0214,0.0235,0.024,0.0257,0.0258,0.0264,0.0265,0.0266,0.0275,0.0248,0.0247,0.0223,0.0206,0.0199,0.0179,0.0148,0.0112,0.0132,0.013,0.0098,0.0036,0.0027,0.0019,0.0099,0.0099,0.0098,0.0015,0,0.0234,0.0267,0.0268,0.0301,0.0319,0.0309,0.0315,0.0311,0.0302,0.0297,0.0255,0.0252,0.0221,0.0219,0.0181,0.0133,0.0097,0.0135,0.0041,0.0038,0.0029,0.0012,0.0095,0.001,0.0008,0.0007,0.0006,0,0.0253,0.0278,0.0314,0.0347,0.0353,0.0368,0.0381,0.0386,0.0368,0.0361,0.0334,0.0304,0.0259,0.0233,0.0134,0.016,0.0104,0.0056,0.0052,0.0032,0.0017,0.001,-0.0005,-0.0005,-0.0004,-0.0003,-0.0002,0,0.0273,0.0311,0.0346,0.0357,0.0384,0.0398,0.0413,0.0409,0.0432,0.0406,0.0416,0.0343,0.0324,0.0229,0.013,0.0134,0.0012,0.0005,-0.0063,-0.0064,-0.004,-0.0037,-0.0068,-0.0068,-0.0068,-0.0068,-0.0067,0,0.0296,0.0327,0.0364,0.0386,0.0437,0.0436,0.0485,0.0483,0.0496,0.053,0.046,0.0455,0.0325,0.024,0.0136,0.0014,0.0013,-0.0066,-0.0088,-0.0029,-0.0024,-0.0045,-0.0041,-0.0071,-0.007,-0.0069,-0.0069,0,0.0311,0.0332,0.0384,0.0429,0.045,0.0488,0.0557,0.0595,0.0591,0.0628,0.0627,0.0547,0.0427,0.0281,0.0125,0.004,-0.0088,-0.013,-0.0062,-0.0077,-0.0146,-0.014,-0.0216,-0.0217,-0.0218,-0.0219,-0.022,0,0.0324,0.0351,0.0423,0.0466,0.0494,0.0558,0.0611,0.0645,0.0692,0.0684,0.0705,0.0599,0.0525,0.0289,0.0128,-0.0091,-0.0114,-0.018,-0.0163,-0.0148,-0.0162,-0.0154,-0.0148,-0.0221,-0.0221,-0.0222,-0.0222,0,0.0358,0.0382,0.0426,0.0512,0.0583,0.0667,0.0742,0.0785,0.0817,0.0816,0.0771,0.0638,0.0498,0.0296,0.0124,-0.0031,-0.0142,-0.019,-0.0189,-0.0174,-0.0155,-0.0166,-0.0158,-0.0225,-0.0224,-0.0224,-0.0224,0,0.0388,0.0428,0.0489,0.0564,0.0651,0.0743,0.0784,0.0834,0.0876,0.0861,0.084,0.0671,0.0573,0.0327,0.0166,0.0008,-0.0026,-0.0067,-0.0073,-0.0071,-0.0008,0.0039,0.0006,0,0,0,0,0,0.0421,0.0472,0.0542,0.0634,0.0714,0.0771,0.0858,0.089,0.092,0.0902,0.0875,0.0736,0.0485,0.0368,0.021,0.0147,-0.0056,-0.0044,-0.0105,-0.0242,-0.0238,-0.019,0,0,0,0,0,0,0.0447,0.0516,0.0549,0.067,0.0738,0.0848,0.0906,0.0929,0.0915,0.0902,0.0767,0.0701,0.0452,0.0576,0.0207,0.0157,0.0098,-0.0163,-0.0167,-0.0244,-0.0241,-0.0238,-0.0187,0,0,0,0,0]}]]